Weather History for KLNK - March, 2013

Change the Weather History Date:

Thursday, March 21, 2013

  Actual Average Record
Temperature  
Mean Temperature 27 °F 42 °F  
Max Temperature 33 °F 55 °F 88 °F (1907)
Min Temperature 21 °F 30 °F 5 °F (1974)
Degree Days  
Heating Degree Days 38 23  
Month to date heating degree days 666 563  
Since 1 July heating degree days 5294 5266  
Cooling Degree Days 0 0  
Month to date cooling degree days 0 0  
Year to date cooling degree days 0 0  
Moisture  
Dew Point 16 °F    
Average Humidity 64    
Maximum Humidity 88    
Minimum Humidity 39    
Precipitation  
Precipitation 0.08 in 0.07 in 0.42 in (1949)
Month to date precipitation 1.06 1.17  
Year to date precipitation 2.33 2.58  
Snow  
Snow 0.50 in 0.20 in - ()
Month to date snowfall 6.2 3.6  
Since 1 July snowfall 23.0 23.3  
Snow Depth 0.00 in    
Sea Level Pressure  
Sea Level Pressure 30.03 in    
Wind  
Wind Speed 9 mph (ESE)    
Max Wind Speed 15 mph    
Max Gust Speed 18 mph    
Visibility 6 miles    
Events Fog , Snow    
T = Trace of Precipitation, MM = Missing Value Source: NWS Daily Summary

Daily Weather History Graph

Daily Weather History Graph

Search for Another Location

Airport or City:

Trip Planner

Search our weather history database for the weather conditions in past years. The results will help you decide how hot, cold, wet, or windy it might be!

Date:

Astronomy

Mar. 21, 2013 Rise Set
Actual Time 7:28 AM CDT 7:40 PM CDT
Civil Twilight 7:00 AM CDT 8:07 PM CDT
Nautical Twilight 6:28 AM CDT 8:40 PM CDT
Astronomical Twilight 5:56 AM CDT 9:12 PM CDT
Moon 2:09 PM CDT (3/21) 3:52 AM CDT (3/21)
Length of Visible Light 13h 07m
Length of Day
12h 12m
Waxing Gibbous, 69% of the Moon is Illuminated
Mar 21
Waxing Gibbous
Mar 27
Full
Apr 2
Last Quarter
Apr 10
New
Apr 18
First Quarter

Hourly Weather History & Observations

Time (CDT) Temp. Windchill Dew Point Humidity Pressure Visibility Wind Dir Wind Speed Gust Speed Precip Events Conditions
12:54 AM 24.8 °F - 10.4 °F 54% 30.10 in 10.0 mi Calm Calm - N/A   Clear
1:54 AM 26.1 °F 19.4 °F 10.9 °F 53% 30.13 in 10.0 mi ESE 5.8 mph - N/A   Clear
2:54 AM 26.1 °F 16.8 °F 10.0 °F 51% 30.12 in 10.0 mi ESE 9.2 mph - N/A   Clear
3:54 AM 26.1 °F 18.4 °F 10.0 °F 51% 30.08 in 10.0 mi ESE 6.9 mph - N/A   Mostly Cloudy
4:54 AM 25.0 °F 18.1 °F 10.0 °F 53% 30.07 in 10.0 mi East 5.8 mph - N/A   Mostly Cloudy
5:54 AM 25.0 °F 14.8 °F 10.9 °F 55% 30.06 in 10.0 mi ESE 10.4 mph - N/A   Overcast
6:54 AM 25.0 °F 15.5 °F 10.9 °F 55% 30.06 in 10.0 mi ESE 9.2 mph - N/A   Overcast
7:10 AM 24.8 °F 15.3 °F 12.2 °F 59% 30.03 in 4.0 mi East 9.2 mph - 0.00 in Snow Light Snow
7:38 AM 23.0 °F 13.1 °F 15.8 °F 74% 30.04 in 1.2 mi ESE 9.2 mph - 0.01 in Snow Light Snow
7:54 AM 21.9 °F 11.0 °F 18.0 °F 85% 30.08 in 0.8 mi ESE 10.4 mph - 0.01 in Snow Light Snow
8:06 AM 21.2 °F 10.1 °F 17.6 °F 86% 30.03 in 0.2 mi ESE 10.4 mph - 0.02 in Fog , Snow Snow
8:18 AM 21.2 °F 10.9 °F 19.4 °F 93% 30.02 in 0.5 mi ESE 9.2 mph - 0.03 in Fog , Snow Snow
8:38 AM 21.2 °F 10.1 °F 17.6 °F 86% 30.02 in 0.8 mi ESE 10.4 mph - 0.04 in Snow Light Snow
8:50 AM 21.2 °F 9.5 °F 17.6 °F 86% 30.01 in 1.0 mi ESE 11.5 mph - 0.05 in Snow Light Snow
8:54 AM 21.0 °F 9.3 °F 18.0 °F 88% 30.06 in 1.0 mi ESE 11.5 mph - 0.05 in Snow Light Snow
9:02 AM 21.2 °F 10.1 °F 17.6 °F 86% 30.01 in 0.8 mi ESE 10.4 mph - 0.00 in Snow Light Snow
9:07 AM 21.2 °F 10.9 °F 17.6 °F 86% 30.02 in 2.0 mi ESE 9.2 mph - 0.00 in Snow Light Snow
9:25 AM 21.2 °F 10.1 °F 17.6 °F 86% 30.01 in 2.0 mi SE 10.4 mph - 0.01 in Snow Light Snow
9:54 AM 21.9 °F 11.7 °F 18.0 °F 85% 30.06 in 2.0 mi ESE 9.2 mph - 0.01 in Snow Light Snow
10:01 AM 21.2 °F 10.1 °F 17.6 °F 86% 30.02 in 3.0 mi ESE 10.4 mph - 0.00 in Snow Light Snow
10:08 AM 21.2 °F 11.7 °F 17.6 °F 86% 30.02 in 2.0 mi ESE 8.1 mph - 0.00 in Snow Light Snow
10:15 AM 23.0 °F 13.1 °F 17.6 °F 80% 30.02 in 1.5 mi East 9.2 mph - 0.00 in Snow Light Snow
10:19 AM 23.0 °F 11.7 °F 17.6 °F 80% 30.02 in 2.0 mi ESE 11.5 mph - 0.00 in Snow Light Snow
10:41 AM 23.0 °F 12.4 °F 17.6 °F 80% 30.01 in 2.0 mi East 10.4 mph - 0.00 in Snow Light Snow
10:54 AM 23.0 °F 11.7 °F 19.0 °F 85% 30.05 in 2.0 mi East 11.5 mph - 0.00 in Snow Light Snow
11:23 AM 24.8 °F 14.6 °F 19.4 °F 80% 30.00 in 3.0 mi East 10.4 mph - 0.00 in Snow Light Snow
11:54 AM 25.0 °F 14.2 °F 19.0 °F 78% 30.04 in 4.0 mi East 11.5 mph - 0.01 in Snow Light Snow
12:54 PM 26.1 °F 15.6 °F 19.9 °F 78% 30.03 in 8.0 mi ESE 11.5 mph - 0.00 in   Overcast
1:54 PM 28.0 °F 18.6 °F 19.0 °F 69% 30.00 in 10.0 mi East 10.4 mph - N/A   Overcast
2:54 PM 30.0 °F 20.0 °F 19.0 °F 64% 29.97 in 10.0 mi East 12.7 mph - N/A   Overcast
3:54 PM 30.9 °F 21.7 °F 19.9 °F 64% 29.96 in 10.0 mi East 11.5 mph - N/A   Overcast
4:54 PM 32.0 °F 23.0 °F 18.0 °F 56% 29.95 in 10.0 mi East 11.5 mph - N/A   Mostly Cloudy
5:54 PM 33.1 °F 24.4 °F 18.0 °F 54% 29.95 in 10.0 mi ESE 11.5 mph - N/A   Overcast
6:54 PM 32.0 °F 24.2 °F 16.0 °F 52% 29.96 in 10.0 mi East 9.2 mph - N/A   Overcast
7:54 PM 30.9 °F 23.5 °F 16.0 °F 54% 29.98 in 10.0 mi NE 8.1 mph - N/A   Overcast
8:54 PM 30.9 °F 25.2 °F 15.1 °F 52% 30.00 in 10.0 mi ENE 5.8 mph - N/A   Overcast
9:54 PM 32.0 °F 26.4 °F 12.0 °F 44% 30.01 in 10.0 mi ESE 5.8 mph - N/A   Overcast
10:54 PM 32.0 °F 26.4 °F 10.9 °F 42% 30.02 in 10.0 mi ESE 5.8 mph - N/A   Overcast
11:54 PM 32.0 °F 24.8 °F 10.9 °F 42% 30.02 in 10.0 mi ESE 8.1 mph - N/A   Overcast